Weather History for Shoreham, United Kingdom

Change the Weather History Date:

Wednesday, September 19, 2012

  Actual Average Record
Temperature  
Mean Temperature 52 °F -  
Max Temperature 62 °F 60 °F 68 °F (2003)
Min Temperature 42 °F 51 °F 42 °F (2012)
Degree Days  
Heating Degree Days 13    
Growing Degree Days 2 (Base 50)    
Moisture  
Dew Point 41 °F    
Average Humidity 53    
Maximum Humidity 72    
Minimum Humidity 35    
Precipitation  
Precipitation 0.00 in - - ()
Sea Level Pressure  
Sea Level Pressure 30.20 in    
Wind  
Wind Speed 9 mph ()    
Max Wind Speed 14 mph    
Max Gust Speed -    
Visibility 6.2 miles    
Events      
Averages and records for this station are not official NWS values.
T = Trace of Precipitation, MM = Missing Value Source: Averaged Metar Reports

Daily Weather History Graph

Daily Weather History Graph

Search for Another Location

Airport:

Trip Planner

Search our weather history database for the weather conditions in past years. The results will help you decide how hot, cold, wet, or windy it might be!

Date:

Astronomy

Sep. 19, 2012 Rise Set
Actual Time 6:43 AM BST 7:05 PM BST
Civil Twilight 6:10 AM BST 7:38 PM BST
Nautical Twilight 5:31 AM BST 8:17 PM BST
Astronomical Twilight 4:50 AM BST 8:58 PM BST
Moon 11:08 AM BST (9/19) 8:28 PM BST (9/19)
Length of Visible Light 13h 28m
Length of Day
12h 22m
Waxing Crescent, 15% of the Moon is Illuminated
Sep 19
Waxing Crescent
Sep 22
First Quarter
Sep 30
Full
Oct 8
Last Quarter
Oct 15
New

Hourly Weather History & Observations

Time (BST) Temp. Dew Point Humidity Pressure Visibility Wind Dir Wind Speed Gust Speed Precip Events Conditions
12:50 AM 47 °F 39 °F 67% 30.13 in - NNW 6.9 mph - -  
3:50 AM 46 °F 40 °F 72% 30.14 in - NW 8.1 mph - -  
6:50 AM 47 °F 40 °F 70% 30.18 in - NW 11.5 mph - -  
9:20 AM 53.6 °F 42.8 °F 67% 30.21 in - WNW 10.4 mph - N/A   Clear
9:50 AM 56 °F 44 °F 53% 30.22 in - NW 11.5 mph - -  
9:50 AM 55.4 °F 44.6 °F 67% 30.21 in - NW 11.5 mph - N/A   Clear
10:20 AM 55.4 °F 42.8 °F 63% 30.21 in 6.2 mi NW 11.5 mph - N/A   Partly Cloudy
10:50 AM 57.2 °F 42.8 °F 59% 30.21 in 6.2 mi WNW 12.7 mph - N/A   Partly Cloudy
11:20 AM 59.0 °F 41.0 °F 51% 30.21 in 6.2 mi NW 11.5 mph - N/A   Partly Cloudy
11:50 AM 59.0 °F 39.2 °F 48% 30.21 in 6.2 mi NW 12.7 mph - N/A   Scattered Clouds
12:20 PM 57.2 °F 41.0 °F 55% 30.21 in 6.2 mi NW 9.2 mph - N/A   Scattered Clouds
12:50 PM 59 °F 41 °F 40% 30.23 in - WNW 8.1 mph - -  
12:50 PM 59.0 °F 41.0 °F 51% 30.21 in 6.2 mi NW 9.2 mph - N/A   Scattered Clouds
1:20 PM 62.6 °F 42.8 °F 48% 30.21 in 6.2 mi WNW 11.5 mph - N/A   Scattered Clouds
1:50 PM 59.0 °F 39.2 °F 48% 30.21 in 6.2 mi WNW 13.8 mph - N/A   Scattered Clouds
2:20 PM 60.8 °F 41.0 °F 48% 30.21 in 6.2 mi NW 10.4 mph - N/A   Scattered Clouds
2:50 PM 60.8 °F 41.0 °F 48% 30.21 in 6.2 mi WNW 13.8 mph - N/A   Scattered Clouds
3:20 PM 59.0 °F 41.0 °F 51% 30.21 in 6.2 mi NNW 10.4 mph - N/A   Scattered Clouds
3:50 PM 61 °F 40 °F 35% 30.21 in - West 12.7 mph - -  
3:50 PM 59.0 °F 39.2 °F 48% 30.21 in 6.2 mi West 11.5 mph - N/A   Scattered Clouds
4:50 PM 62.6 °F 41.0 °F 45% 30.18 in - West 10.4 mph - N/A   Clear
5:20 PM 60.8 °F 39.2 °F 45% 30.18 in - West 13.8 mph - N/A   Clear
5:50 PM 59.0 °F 41.0 °F 51% 30.18 in 6.2 mi WNW 9.2 mph - N/A   Partly Cloudy
6:50 PM 56 °F 41 °F 46% 30.22 in - WNW 5.8 mph - -  
9:50 PM 55 °F 41 °F 49% 30.24 in - NW 6.9 mph - -